No particular awareness of the weather is required.    There are no Weather-warnings


Meteo18 Weather Cam more information Meteo18 Weather Cam


Thunder radar more information blitzortung!


Rain radar more information rain snow radar


Visit our other weather sites:

Template documentation
and downloads

And another site



Weather Underground History page Text

Daily Summary for February 23, 2016 Units:  Metric    English   Both
« Previous Day
Next Day »
Daily Weekly Monthly Yearly Custom
  High: Low: Average:
Temperature: 9.2 °C 0.8 °C 6.3 °C
Dew Point: 8.6 °C 0.2 °C 5.2 °C
Humidity: 97 % 81 % 93 %
Wind Speed: 12.9 km/h 0.0 km/h 3.6 km/h
Wind Gust: 25.7 km/h - -
Wind:- - SSE
Pressure: 1020.9 hPa 1013.4 hPa -
Precipitation: 4.6 mm    
Historical Graphs
 
 
Tabular Data for February 23, 2016
Time Temperature Dew Point Pressure Wind Wind Speed Wind Gust Humidity Rainfall Rate (Hourly)
00:02 8.8 °C 8.2 °C 1014.8 hPa West 4.8 km/h 12.9 km/h 96 % 0.3 mm
00:07 8.8 °C 8.2 °C 1014.8 hPa SW 1.6 km/h 9.7 km/h 96 % 0.5 mm
00:17 8.8 °C 8.3 °C 1014.8 hPa WSW 4.8 km/h 19.3 km/h 97 % 0.5 mm
00:22 8.8 °C 8.3 °C 1014.8 hPa WSW 3.2 km/h 19.3 km/h 97 % 0.3 mm
00:27 8.8 °C 8.3 °C 1014.4 hPa SW 6.4 km/h 19.3 km/h 97 % 0.3 mm
00:32 8.8 °C 8.3 °C 1014.4 hPa SW 4.8 km/h 16.1 km/h 97 % 0.3 mm
00:37 8.8 °C 8.3 °C 1014.4 hPa SW 3.2 km/h 16.1 km/h 97 % 0.3 mm
00:42 8.8 °C 8.3 °C 1014.4 hPa SW 6.4 km/h 16.1 km/h 97 % 0.3 mm
00:47 8.8 °C 8.3 °C 1014.4 hPa SW 6.4 km/h 12.9 km/h 97 % 0.3 mm
00:52 8.8 °C 8.3 °C 1014.4 hPa SW 6.4 km/h 12.9 km/h 97 % 0.3 mm
00:57 8.8 °C 8.3 °C 1014.4 hPa SW 4.8 km/h 11.3 km/h 97 % 0.5 mm
01:07 8.8 °C 8.3 °C 1014.4 hPa SW 3.2 km/h 12.9 km/h 97 % 0.3 mm
01:12 8.8 °C 8.3 °C 1014.4 hPa WSW 4.8 km/h 12.9 km/h 97 % 0.3 mm
01:17 8.8 °C 8.3 °C 1014.4 hPa WSW 6.4 km/h 16.1 km/h 97 % 0.3 mm
01:22 8.8 °C 8.3 °C 1014.4 hPa SW 9.7 km/h 16.1 km/h 97 % 0.5 mm
01:32 8.8 °C 8.3 °C 1014.4 hPa SW 8.0 km/h 12.9 km/h 97 % 0.5 mm
01:37 8.8 °C 8.3 °C 1014.4 hPa SW 6.4 km/h 17.7 km/h 97 % 0.5 mm
01:42 8.8 °C 8.3 °C 1014.4 hPa SW 3.2 km/h 17.7 km/h 97 % 0.5 mm
01:47 8.8 °C 8.3 °C 1014.4 hPa WSW 9.7 km/h 12.9 km/h 97 % 0.5 mm
01:52 8.8 °C 8.3 °C 1014.4 hPa SW 6.4 km/h 12.9 km/h 97 % 0.3 mm
01:57 8.8 °C 8.3 °C 1014.4 hPa SW 9.7 km/h 17.7 km/h 97 % 0.3 mm
02:02 8.9 °C 8.4 °C 1014.4 hPa SW 1.6 km/h 17.7 km/h 97 % 0.3 mm
02:12 8.9 °C 8.4 °C 1014.4 hPa SW 3.2 km/h 12.9 km/h 97 % 0.5 mm
02:17 8.9 °C 8.4 °C 1014.4 hPa SW 4.8 km/h 11.3 km/h 97 % 0.3 mm
02:22 8.9 °C 8.4 °C 1014.4 hPa SW 3.2 km/h 11.3 km/h 97 % 0.3 mm
02:27 8.9 °C 8.4 °C 1014.4 hPa WSW 3.2 km/h 12.9 km/h 97 % 0.3 mm
02:32 8.9 °C 8.4 °C 1014.4 hPa WSW 6.4 km/h 12.9 km/h 97 % 0.3 mm
02:37 8.9 °C 8.4 °C 1014.4 hPa SW 4.8 km/h 11.3 km/h 97 % 0.3 mm
02:42 9.0 °C 8.5 °C 1014.4 hPa SW 3.2 km/h 11.3 km/h 97 % 0.3 mm
02:47 9.0 °C 8.5 °C 1014.1 hPa SW 4.8 km/h 12.9 km/h 97 % 0.3 mm
02:52 9.0 °C 8.5 °C 1014.4 hPa SW 3.2 km/h 12.9 km/h 97 % 0.3 mm
02:57 9.0 °C 8.5 °C 1014.1 hPa WSW 3.2 km/h 11.3 km/h 97 % 0.3 mm
03:02 9.0 °C 8.5 °C 1014.1 hPa SSE 1.6 km/h 11.3 km/h 97 % 0.3 mm
03:07 9.1 °C 8.6 °C 1014.1 hPa WSW 3.2 km/h 9.7 km/h 97 % 0.0 mm
03:17 9.1 °C 8.6 °C 1013.8 hPa SW 3.2 km/h 11.3 km/h 97 % 0.0 mm
03:22 9.1 °C 8.6 °C 1013.8 hPa SW 1.6 km/h 11.3 km/h 97 % 0.0 mm
03:32 9.1 °C 8.6 °C 1013.8 hPa Calm   12.9 km/h 97 % 0.0 mm
03:37 9.1 °C 8.6 °C 1013.8 hPa SSW 1.6 km/h 11.3 km/h 97 % 0.0 mm
03:42 9.1 °C 8.5 °C 1013.8 hPa WSW 1.6 km/h 11.3 km/h 96 % 0.0 mm
03:47 9.1 °C 8.5 °C 1013.8 hPa WSW 3.2 km/h 11.3 km/h 96 % 0.0 mm
03:52 9.1 °C 8.5 °C 1013.8 hPa SW 4.8 km/h 11.3 km/h 96 % 0.0 mm
03:57 9.1 °C 8.5 °C 1013.8 hPa SW 3.2 km/h 11.3 km/h 96 % 0.0 mm
04:02 9.1 °C 8.5 °C 1013.8 hPa WSW 1.6 km/h 11.3 km/h 96 % 0.0 mm
04:07 9.1 °C 8.5 °C 1013.8 hPa SW 8.0 km/h 12.9 km/h 96 % 0.0 mm
04:12 9.1 °C 8.5 °C 1013.8 hPa SW 1.6 km/h 12.9 km/h 96 % 0.0 mm
04:22 9.2 °C 8.4 °C 1013.8 hPa SW 3.2 km/h 12.9 km/h 95 % 0.0 mm
04:27 9.1 °C 8.3 °C 1013.8 hPa SSE 4.8 km/h 9.7 km/h 95 % 0.0 mm
04:32 9.1 °C 8.3 °C 1013.8 hPa SSW 3.2 km/h 9.7 km/h 95 % 0.0 mm
04:37 9.1 °C 8.3 °C 1013.8 hPa SW 1.6 km/h 12.9 km/h 95 % 0.0 mm
04:42 9.1 °C 8.3 °C 1013.8 hPa SW 8.0 km/h 12.9 km/h 95 % 0.0 mm
04:47 9.1 °C 8.2 °C 1013.8 hPa West 8.0 km/h 14.5 km/h 94 % 0.0 mm
04:52 9.1 °C 8.2 °C 1013.8 hPa WSW 6.4 km/h 14.5 km/h 94 % 0.0 mm
04:57 9.1 °C 8.2 °C 1013.8 hPa SW 4.8 km/h 14.5 km/h 94 % 0.0 mm
05:02 9.1 °C 8.2 °C 1013.4 hPa WSW 6.4 km/h 14.5 km/h 94 % 0.0 mm
05:12 9.1 °C 8.2 °C 1013.8 hPa SW 1.6 km/h 12.9 km/h 94 % 0.0 mm
05:17 9.1 °C 8.2 °C 1013.8 hPa SW 4.8 km/h 11.3 km/h 94 % 0.0 mm
05:22 9.1 °C 8.2 °C 1013.4 hPa WSW 9.7 km/h 11.3 km/h 94 % 0.0 mm
05:27 9.1 °C 8.2 °C 1013.4 hPa SE 3.2 km/h 16.1 km/h 94 % 0.0 mm
05:32 9.1 °C 8.2 °C 1013.4 hPa WSW 3.2 km/h 16.1 km/h 94 % 0.0 mm
05:42 9.1 °C 8.0 °C 1013.4 hPa SSW 4.8 km/h 16.1 km/h 93 % 0.0 mm
05:47 9.1 °C 8.0 °C 1013.4 hPa SE 9.7 km/h 17.7 km/h 93 % 0.0 mm
05:52 9.0 °C 7.9 °C 1013.4 hPa SW 1.6 km/h 17.7 km/h 93 % 0.0 mm
05:57 8.9 °C 7.8 °C 1013.4 hPa SW 6.4 km/h 12.9 km/h 93 % 0.0 mm
06:02 8.9 °C 7.8 °C 1013.4 hPa SW 4.8 km/h 12.9 km/h 93 % 0.0 mm
06:12 8.9 °C 7.8 °C 1013.4 hPa SSW 3.2 km/h 12.9 km/h 93 % 0.0 mm
06:17 8.8 °C 7.7 °C 1013.4 hPa WSW 9.7 km/h 12.9 km/h 93 % 0.0 mm
06:22 8.8 °C 7.7 °C 1013.4 hPa SW 8.0 km/h 12.9 km/h 93 % 0.0 mm
06:32 8.8 °C 7.7 °C 1013.4 hPa WSW 6.4 km/h 14.5 km/h 93 % 0.0 mm
06:37 8.8 °C 7.7 °C 1013.4 hPa SW 4.8 km/h 16.1 km/h 93 % 0.0 mm
06:42 8.7 °C 7.6 °C 1013.8 hPa WSW 6.4 km/h 16.1 km/h 93 % 0.0 mm
06:52 8.8 °C 7.7 °C 1013.8 hPa WSW 6.4 km/h 16.1 km/h 93 % 0.0 mm
06:57 8.8 °C 7.7 °C 1013.8 hPa SW 4.8 km/h 16.1 km/h 93 % 0.0 mm
07:02 8.8 °C 7.7 °C 1013.4 hPa SW 11.3 km/h 22.5 km/h 93 % 0.0 mm
07:12 8.7 °C 7.8 °C 1013.4 hPa SSW 6.4 km/h 22.5 km/h 94 % 0.0 mm
07:17 8.7 °C 7.8 °C 1013.4 hPa WSW 3.2 km/h 17.7 km/h 94 % 0.0 mm
07:22 8.6 °C 7.7 °C 1013.8 hPa SW 4.8 km/h 17.7 km/h 94 % 0.0 mm
07:27 8.6 °C 7.7 °C 1013.8 hPa WSW 8.0 km/h 17.7 km/h 94 % 0.0 mm
07:32 8.5 °C 7.6 °C 1013.8 hPa WSW 6.4 km/h 17.7 km/h 94 % 0.0 mm
07:42 8.4 °C 7.6 °C 1013.8 hPa WSW 1.6 km/h 14.5 km/h 95 % 0.0 mm
07:52 8.3 °C 7.5 °C 1013.8 hPa West 9.7 km/h 14.5 km/h 95 % 0.3 mm
07:57 8.3 °C 7.7 °C 1013.8 hPa WSW 12.9 km/h 17.7 km/h 96 % 0.3 mm
08:02 8.3 °C 7.7 °C 1013.8 hPa SW 11.3 km/h 17.7 km/h 96 % 0.3 mm
08:07 8.3 °C 7.7 °C 1013.8 hPa SW 8.0 km/h 16.1 km/h 96 % 0.5 mm
08:12 8.3 °C 7.7 °C 1013.8 hPa WSW 1.6 km/h 16.1 km/h 96 % 0.5 mm
08:17 8.2 °C 7.6 °C 1013.8 hPa SW 4.8 km/h 17.7 km/h 96 % 0.5 mm
08:22 8.2 °C 7.6 °C 1013.8 hPa SSE 3.2 km/h 17.7 km/h 96 % 0.5 mm
08:27 8.2 °C 7.6 °C 1013.8 hPa SW 11.3 km/h 17.7 km/h 96 % 0.5 mm
08:32 8.2 °C 7.6 °C 1013.8 hPa SW 4.8 km/h 17.7 km/h 96 % 0.5 mm
08:37 8.2 °C 7.6 °C 1013.8 hPa WSW 8.0 km/h 16.1 km/h 96 % 0.5 mm
08:42 8.2 °C 7.6 °C 1013.8 hPa WSW 4.8 km/h 16.1 km/h 96 % 0.5 mm
08:47 8.3 °C 7.7 °C 1013.8 hPa SW 9.7 km/h 16.1 km/h 96 % 0.5 mm
08:52 8.3 °C 7.7 °C 1014.1 hPa WSW 4.8 km/h 16.1 km/h 96 % 0.5 mm
09:02 8.3 °C 7.9 °C 1014.1 hPa South 1.6 km/h 16.1 km/h 97 % 0.8 mm
09:12 8.4 °C 7.8 °C 1014.1 hPa West 6.4 km/h 16.1 km/h 96 % 0.5 mm
09:17 8.5 °C 7.9 °C 1014.1 hPa WSW 8.0 km/h 17.7 km/h 96 % 0.5 mm
09:22 8.6 °C 8.0 °C 1014.4 hPa SSW 4.8 km/h 17.7 km/h 96 % 0.5 mm
09:27 8.6 °C 8.0 °C 1014.1 hPa West 4.8 km/h 16.1 km/h 96 % 0.5 mm
09:37 8.7 °C 8.1 °C 1014.4 hPa NW 3.2 km/h 17.7 km/h 96 % 0.8 mm
09:42 8.7 °C 8.1 °C 1014.4 hPa SSW 3.2 km/h 17.7 km/h 96 % 0.8 mm
09:47 8.7 °C 8.1 °C 1014.4 hPa WSW 8.0 km/h 16.1 km/h 96 % 0.5 mm
09:52 8.7 °C 8.1 °C 1014.4 hPa SW 4.8 km/h 16.1 km/h 96 % 0.5 mm
09:57 8.7 °C 8.1 °C 1014.4 hPa WSW 4.8 km/h 12.9 km/h 96 % 0.8 mm
10:02 8.7 °C 8.1 °C 1014.4 hPa West 1.6 km/h 12.9 km/h 96 % 0.8 mm
10:07 8.7 °C 8.3 °C 1014.8 hPa SSW 3.2 km/h 12.9 km/h 97 % 0.5 mm
10:12 8.4 °C 7.5 °C 1015.1 hPa NNE 9.7 km/h 12.9 km/h 94 % 0.5 mm
10:17 7.7 °C 6.8 °C 1015.1 hPa NE 6.4 km/h 17.7 km/h 94 % 1.0 mm
10:22 7.4 °C 6.7 °C 1015.5 hPa ENE 3.2 km/h 17.7 km/h 95 % 1.0 mm
10:27 7.3 °C 6.6 °C 1015.5 hPa NE 3.2 km/h 16.1 km/h 95 % 1.0 mm
10:32 7.2 °C 6.5 °C 1015.5 hPa ENE 4.8 km/h 16.1 km/h 95 % 1.0 mm
10:37 7.3 °C 6.7 °C 1015.5 hPa NE 8.0 km/h 12.9 km/h 96 % 1.0 mm
10:42 7.1 °C 6.4 °C 1015.5 hPa East 6.4 km/h 12.9 km/h 95 % 1.0 mm
10:47 7.1 °C 6.4 °C 1015.8 hPa SE 4.8 km/h 16.1 km/h 95 % 1.0 mm
10:52 7.0 °C 6.3 °C 1015.8 hPa ENE 9.7 km/h 16.1 km/h 95 % 1.0 mm
10:57 6.9 °C 6.2 °C 1015.8 hPa NE 8.0 km/h 16.1 km/h 95 % 1.0 mm
11:02 7.0 °C 6.3 °C 1015.8 hPa NE 4.8 km/h 16.1 km/h 95 % 1.0 mm
11:12 6.8 °C 5.9 °C 1016.1 hPa NE 8.0 km/h 16.1 km/h 94 % 0.8 mm
11:17 6.7 °C 5.8 °C 1016.1 hPa ENE 4.8 km/h 16.1 km/h 94 % 0.5 mm
11:22 6.7 °C 6.0 °C 1016.1 hPa NNE 6.4 km/h 16.1 km/h 95 % 0.5 mm
11:27 6.5 °C 5.6 °C 1016.1 hPa ENE 9.7 km/h 19.3 km/h 94 % 0.5 mm
11:32 6.4 °C 5.5 °C 1016.5 hPa ENE 9.7 km/h 19.3 km/h 94 % 0.5 mm
11:37 6.4 °C 5.5 °C 1016.5 hPa East 6.4 km/h 25.7 km/h 94 % 0.5 mm
11:42 6.3 °C 5.4 °C 1016.5 hPa ENE 8.0 km/h 25.7 km/h 94 % 0.5 mm
11:47 6.2 °C 5.3 °C 1016.5 hPa NNE 12.9 km/h 25.7 km/h 94 % 0.5 mm
11:57 6.1 °C 5.2 °C 1016.5 hPa NE 4.8 km/h 16.1 km/h 94 % 0.5 mm
12:02 6.2 °C 5.5 °C 1016.8 hPa NNE 8.0 km/h 16.1 km/h 95 % 0.5 mm
12:07 6.2 °C 5.3 °C 1016.8 hPa ESE 3.2 km/h 19.3 km/h 94 % 0.5 mm
12:12 6.1 °C 5.2 °C 1016.8 hPa ENE 6.4 km/h 19.3 km/h 94 % 0.5 mm
12:17 6.2 °C 5.3 °C 1017.2 hPa NE 1.6 km/h 19.3 km/h 94 % 0.5 mm
12:22 6.2 °C 5.3 °C 1017.2 hPa ENE 3.2 km/h 19.3 km/h 94 % 0.5 mm
12:32 6.1 °C 5.2 °C 1017.2 hPa NE 1.6 km/h 11.3 km/h 94 % 0.5 mm
12:37 6.0 °C 5.0 °C 1017.2 hPa NE 1.6 km/h 11.3 km/h 93 % 0.5 mm
12:42 6.1 °C 5.2 °C 1017.2 hPa NE 3.2 km/h 11.3 km/h 94 % 0.8 mm
12:52 6.2 °C 5.3 °C 1017.2 hPa ENE 1.6 km/h 11.3 km/h 94 % 0.5 mm
12:57 6.4 °C 5.4 °C 1017.2 hPa NE 6.4 km/h 6.4 km/h 93 % 0.5 mm
13:02 6.3 °C 5.1 °C 1017.2 hPa ENE 3.2 km/h 4.8 km/h 92 % 0.5 mm
13:07 6.2 °C 5.0 °C 1017.2 hPa ENE 6.4 km/h 14.5 km/h 92 % 0.5 mm
13:12 6.2 °C 5.0 °C 1017.2 hPa NNE 6.4 km/h 14.5 km/h 92 % 0.5 mm
13:17 6.2 °C 5.0 °C 1017.2 hPa NE 4.8 km/h 14.5 km/h 92 % 0.5 mm
13:22 6.2 °C 5.0 °C 1017.2 hPa NE 4.8 km/h 14.5 km/h 92 % 0.3 mm
13:27 6.3 °C 5.3 °C 1017.2 hPa Calm   9.7 km/h 93 % 0.3 mm
13:32 6.3 °C 4.9 °C 1017.2 hPa Calm   9.7 km/h 91 % 0.3 mm
13:37 6.3 °C 4.9 °C 1017.2 hPa ENE 6.4 km/h 9.7 km/h 91 % 0.0 mm
13:42 6.3 °C 4.8 °C 1017.2 hPa East 3.2 km/h 9.7 km/h 90 % 0.0 mm
13:52 6.3 °C 4.8 °C 1017.2 hPa NE 4.8 km/h 9.7 km/h 90 % 0.0 mm
13:57 6.3 °C 4.8 °C 1017.2 hPa NE 3.2 km/h 9.7 km/h 90 % 0.0 mm
14:02 6.2 °C 4.4 °C 1017.2 hPa ENE 3.2 km/h 9.7 km/h 88 % 0.0 mm
14:12 6.3 °C 4.5 °C 1017.2 hPa NE 4.8 km/h 8.0 km/h 88 % 0.0 mm
14:17 6.4 °C 4.6 °C 1017.2 hPa Calm   8.0 km/h 88 % 0.0 mm
14:22 6.4 °C 4.9 °C 1017.2 hPa NE 6.4 km/h 8.0 km/h 90 % 0.0 mm
14:32 6.6 °C 4.8 °C 1017.2 hPa NE 3.2 km/h 11.3 km/h 88 % 0.0 mm
14:37 6.5 °C 4.7 °C 1017.2 hPa ENE 4.8 km/h 9.7 km/h 88 % 0.0 mm
14:42 6.5 °C 4.7 °C 1017.2 hPa NE 1.6 km/h 9.7 km/h 88 % 0.0 mm
14:47 6.5 °C 4.7 °C 1017.2 hPa ENE 1.6 km/h 8.0 km/h 88 % 0.0 mm
14:57 6.4 °C 4.1 °C 1017.5 hPa East 6.4 km/h 9.7 km/h 85 % 0.0 mm
15:02 6.4 °C 4.2 °C 1017.5 hPa ENE 3.2 km/h 9.7 km/h 86 % 0.0 mm
15:07 6.4 °C 4.2 °C 1017.5 hPa ENE 1.6 km/h 9.7 km/h 86 % 0.0 mm
15:12 6.4 °C 4.4 °C 1017.5 hPa ENE 1.6 km/h 9.7 km/h 87 % 0.0 mm
15:17 6.4 °C 4.2 °C 1017.5 hPa NE 4.8 km/h 8.0 km/h 86 % 0.0 mm
15:22 6.4 °C 4.2 °C 1017.5 hPa ENE 6.4 km/h 8.0 km/h 86 % 0.0 mm
15:32 6.3 °C 4.3 °C 1017.5 hPa ENE 1.6 km/h 11.3 km/h 87 % 0.0 mm
15:37 6.3 °C 4.1 °C 1017.8 hPa East 1.6 km/h 8.0 km/h 86 % 0.0 mm
15:42 6.3 °C 4.0 °C 1017.8 hPa NE 1.6 km/h 8.0 km/h 85 % 0.0 mm
15:47 6.4 °C 4.1 °C 1017.8 hPa NNE 8.0 km/h 8.0 km/h 85 % 0.0 mm
15:52 6.5 °C 4.2 °C 1017.8 hPa ENE 4.8 km/h 6.4 km/h 85 % 0.0 mm
15:57 6.5 °C 4.2 °C 1017.8 hPa ENE 4.8 km/h 9.7 km/h 85 % 0.0 mm
16:02 6.6 °C 4.4 °C 1017.8 hPa ENE 3.2 km/h 9.7 km/h 86 % 0.0 mm
16:07 6.7 °C 4.4 °C 1017.8 hPa NE 1.6 km/h 9.7 km/h 85 % 0.0 mm
16:12 6.7 °C 4.2 °C 1017.8 hPa ENE 1.6 km/h 9.7 km/h 84 % 0.0 mm
16:17 6.8 °C 4.5 °C 1017.8 hPa NE 4.8 km/h 8.0 km/h 85 % 0.0 mm
16:22 6.8 °C 4.3 °C 1017.8 hPa NE 3.2 km/h 8.0 km/h 84 % 0.0 mm
16:27 6.7 °C 4.4 °C 1017.8 hPa NE 1.6 km/h 8.0 km/h 85 % 0.0 mm
16:32 6.7 °C 4.4 °C 1018.2 hPa ENE 4.8 km/h 8.0 km/h 85 % 0.0 mm
16:37 6.7 °C 4.4 °C 1017.8 hPa East 1.6 km/h 8.0 km/h 85 % 0.0 mm
16:42 6.7 °C 3.8 °C 1018.2 hPa East 3.2 km/h 8.0 km/h 82 % 0.0 mm
16:47 6.6 °C 3.7 °C 1018.2 hPa NE 4.8 km/h 8.0 km/h 82 % 0.0 mm
16:52 6.6 °C 3.7 °C 1018.2 hPa ENE 3.2 km/h 8.0 km/h 82 % 0.0 mm
16:57 6.6 °C 3.9 °C 1018.5 hPa ENE 3.2 km/h 8.0 km/h 83 % 0.0 mm
17:02 6.6 °C 3.7 °C 1018.5 hPa NE 4.8 km/h 8.0 km/h 82 % 0.0 mm
17:07 6.5 °C 3.6 °C 1018.5 hPa NE 4.8 km/h 12.9 km/h 82 % 0.0 mm
17:12 6.5 °C 3.8 °C 1018.5 hPa NE 6.4 km/h 12.9 km/h 83 % 0.0 mm
17:17 6.4 °C 3.6 °C 1018.8 hPa NNW 4.8 km/h 12.9 km/h 82 % 0.0 mm
17:22 6.4 °C 3.6 °C 1018.5 hPa NE 9.7 km/h 12.9 km/h 82 % 0.0 mm
17:27 6.4 °C 3.6 °C 1018.5 hPa ESE 1.6 km/h 12.9 km/h 82 % 0.0 mm
17:32 6.3 °C 3.5 °C 1018.8 hPa Calm   12.9 km/h 82 % 0.0 mm
17:37 6.2 °C 3.2 °C 1018.8 hPa NE 4.8 km/h 12.9 km/h 81 % 0.0 mm
17:42 5.9 °C 2.9 °C 1018.8 hPa NNE 9.7 km/h 12.9 km/h 81 % 0.0 mm
17:47 5.7 °C 2.9 °C 1018.8 hPa East 1.6 km/h 9.7 km/h 82 % 0.0 mm
17:52 5.5 °C 3.0 °C 1018.8 hPa NNE 3.2 km/h 9.7 km/h 84 % 0.0 mm
18:02 5.2 °C 2.9 °C 1018.8 hPa Calm   9.7 km/h 85 % 0.0 mm
18:07 4.9 °C 2.8 °C 1018.8 hPa NE 1.6 km/h 4.8 km/h 86 % 0.0 mm
18:12 4.7 °C 2.6 °C 1019.2 hPa Calm   4.8 km/h 86 % 0.0 mm
18:17 4.5 °C 2.5 °C 1019.2 hPa Calm   4.8 km/h 87 % 0.0 mm
18:22 4.3 °C 2.3 °C 1019.2 hPa Calm   3.2 km/h 87 % 0.0 mm
18:27 4.2 °C 2.2 °C 1019.5 hPa Calm   3.2 km/h 87 % 0.0 mm
18:37 3.9 °C 2.1 °C 1019.5 hPa Calm   1.6 km/h 88 % 0.0 mm
18:42 3.6 °C 1.8 °C 1019.5 hPa Calm     88 % 0.0 mm
18:47 3.3 °C 1.7 °C 1019.5 hPa Calm     89 % 0.0 mm
18:57 2.9 °C 1.4 °C 1019.9 hPa Calm     90 % 0.0 mm
19:02 2.7 °C 1.4 °C 1019.9 hPa Calm     91 % 0.0 mm
19:07 2.4 °C 1.1 °C 1019.9 hPa Calm     91 % 0.0 mm
19:12 2.4 °C 1.4 °C 1019.9 hPa Calm     93 % 0.0 mm
19:17 2.5 °C 1.5 °C 1019.9 hPa Calm     93 % 0.0 mm
19:22 2.4 °C 1.4 °C 1019.9 hPa Calm     93 % 0.0 mm
19:27 2.3 °C 1.3 °C 1019.9 hPa Calm     93 % 0.0 mm
19:32 2.3 °C 1.4 °C 1019.9 hPa Calm     94 % 0.0 mm
19:37 2.2 °C 1.3 °C 1020.2 hPa Calm     94 % 0.0 mm
19:42 2.2 °C 1.3 °C 1020.2 hPa Calm     94 % 0.0 mm
19:47 2.2 °C 1.3 °C 1020.2 hPa Calm   1.6 km/h 94 % 0.0 mm
19:52 2.2 °C 1.3 °C 1020.2 hPa Calm   1.6 km/h 94 % 0.0 mm
19:57 2.1 °C 1.2 °C 1020.5 hPa Calm   1.6 km/h 94 % 0.0 mm
20:02 2.0 °C 1.1 °C 1020.5 hPa Calm   1.6 km/h 94 % 0.0 mm
20:07 1.8 °C 0.9 °C 1020.5 hPa Calm     94 % 0.0 mm
20:12 1.6 °C 0.7 °C 1020.5 hPa Calm     94 % 0.0 mm
20:17 1.4 °C 0.5 °C 1020.5 hPa Calm     94 % 0.0 mm
20:22 1.4 °C 0.5 °C 1020.5 hPa Calm     94 % 0.0 mm
20:27 1.3 °C 0.4 °C 1020.5 hPa Calm     94 % 0.0 mm
20:32 1.2 °C 0.5 °C 1020.5 hPa Calm     95 % 0.0 mm
20:37 1.2 °C 0.5 °C 1020.5 hPa Calm     95 % 0.0 mm
20:42 1.1 °C 0.4 °C 1020.5 hPa Calm     95 % 0.0 mm
20:52 1.0 °C 0.3 °C 1020.5 hPa Calm     95 % 0.0 mm
20:57 0.9 °C 0.3 °C 1020.5 hPa Calm     96 % 0.0 mm
21:02 0.9 °C 0.3 °C 1020.5 hPa Calm     96 % 0.0 mm
21:12 0.8 °C 0.2 °C 1020.5 hPa Calm     96 % 0.0 mm
21:17 0.9 °C 0.3 °C 1020.5 hPa Calm     96 % 0.0 mm
21:22 0.8 °C 0.2 °C 1020.5 hPa Calm     96 % 0.0 mm
21:27 0.8 °C 0.2 °C 1020.5 hPa Calm     96 % 0.0 mm
21:37 0.9 °C 0.5 °C 1020.5 hPa Calm     97 % 0.0 mm
21:42 1.0 °C 0.6 °C 1020.5 hPa Calm     97 % 0.0 mm
21:47 1.1 °C 0.7 °C 1020.5 hPa Calm     97 % 0.0 mm
21:52 1.1 °C 0.7 °C 1020.5 hPa Calm     97 % 0.0 mm
21:57 1.1 °C 0.7 °C 1020.5 hPa Calm     97 % 0.0 mm
22:02 1.3 °C 0.9 °C 1020.5 hPa Calm     97 % 0.0 mm
22:07 1.6 °C 1.2 °C 1020.5 hPa Calm     97 % 0.0 mm
22:17 1.6 °C 1.2 °C 1020.5 hPa Calm     97 % 0.0 mm
22:22 1.6 °C 1.2 °C 1020.5 hPa Calm     97 % 0.0 mm
22:27 1.6 °C 1.2 °C 1020.5 hPa Calm     97 % 0.0 mm
22:32 1.6 °C 1.2 °C 1020.5 hPa Calm     97 % 0.0 mm
22:37 1.6 °C 1.0 °C 1020.5 hPa Calm     96 % 0.0 mm
22:42 1.5 °C 1.1 °C 1020.5 hPa Calm     97 % 0.0 mm
22:47 1.5 °C 1.1 °C 1020.5 hPa Calm     97 % 0.0 mm
22:52 1.6 °C 1.2 °C 1020.5 hPa Calm     97 % 0.0 mm
22:57 1.6 °C 1.2 °C 1020.5 hPa Calm     97 % 0.0 mm
23:02 1.6 °C 1.2 °C 1020.5 hPa Calm     97 % 0.0 mm
23:07 1.6 °C 1.2 °C 1020.5 hPa Calm     97 % 0.0 mm
23:12 1.5 °C 1.1 °C 1020.5 hPa Calm     97 % 0.0 mm
23:17 1.4 °C 1.0 °C 1020.5 hPa Calm     97 % 0.0 mm
23:22 1.4 °C 1.0 °C 1020.5 hPa Calm     97 % 0.0 mm
23:27 1.3 °C 0.9 °C 1020.5 hPa Calm     97 % 0.0 mm
23:32 1.3 °C 0.9 °C 1020.5 hPa Calm     97 % 0.0 mm
23:37 1.3 °C 0.9 °C 1020.5 hPa Calm     97 % 0.0 mm
23:42 1.2 °C 0.8 °C 1020.9 hPa Calm     97 % 0.0 mm
23:47 1.1 °C 0.7 °C 1020.9 hPa Calm     97 % 0.0 mm
23:52 1.1 °C 0.7 °C 1020.9 hPa Calm     97 % 0.0 mm
23:57 1.0 °C 0.6 °C 1020.9 hPa Calm     97 % 0.0 mm
Meteo18
Compliments of Weather Underground - 4 mb

Script developed by  Jim McMurry - jmcmurry@mwt.net Adapted for the template by  Wim van der Kuil - Leuven-Template.eu

You find our weather info also at:

European Weather Network

Weather Underground

Equipment we use:

Weather-station
Davis Vue

Weather-program
Meteohub

Weather-server
Raspberry PI 2 B+

Provider
1 and 1

Davis Vue

Meteohub

Raspberry PI 2 B+

1 and 1